Location: Vancouver
(49.2500°N, 123.1330°W)
Time: 03:50:16
(UTC-07:00)

ISS - Visible Passes

Search period start: 30 March 2017 00:00
Search period end: 09 April 2017 00:00
Orbit: 399 x 409 km, 51.6° (Epoch: 30 March)

Date Brightness Start Highest point End Pass type
(mag) Time Alt. Az. Time Alt. Az. Time Alt. Az.
30 Mar -3.9 21:06:34 10° WSW 21:09:48 71° SSE 21:11:23 28° ENE visible
30 Mar -1.0 22:43:10 10° W 22:44:04 17° WNW 22:44:04 17° WNW visible
31 Mar -3.5 20:14:21 10° SW 20:17:30 46° SSE 20:20:39 10° ENE visible
31 Mar -3.5 21:50:42 10° W 21:53:57 61° N 21:54:04 60° N visible
01 Apr -3.7 20:58:14 10° WSW 21:01:30 75° NNW 21:03:57 17° ENE visible
01 Apr -1.6 22:34:58 10° WNW 22:36:36 26° WNW 22:36:36 26° WNW visible
02 Apr -3.3 21:42:29 10° W 21:45:42 53° N 21:46:23 43° NE visible
03 Apr -3.3 20:49:58 10° W 20:53:13 58° N 20:56:06 13° ENE visible
03 Apr -2.2 22:26:39 10° WNW 22:28:44 35° WNW 22:28:44 35° WNW visible
04 Apr -3.4 21:34:11 10° WNW 21:37:25 56° N 21:38:23 38° ENE visible
04 Apr -0.7 23:10:43 10° WNW 23:11:02 12° WNW 23:11:02 12° WNW visible
05 Apr -3.2 20:41:42 10° WNW 20:44:54 53° N 20:48:01 11° ENE visible
05 Apr -2.8 22:18:14 10° WNW 22:20:39 46° WNW 22:20:39 46° WNW visible
06 Apr -3.7 21:25:47 10° WNW 21:29:04 71° NNE 21:30:15 35° E visible
06 Apr -0.8 23:02:23 10° W 23:02:53 13° W 23:02:53 13° W visible
07 Apr -3.4 20:33:18 10° WNW 20:36:32 59° N 20:39:47 10° E visible
07 Apr -3.0 22:09:49 10° WNW 22:12:28 45° WSW 22:12:28 45° WSW visible
08 Apr -3.9 21:17:18 10° WNW 21:20:34 78° SSW 21:22:04 30° ESE visible
08 Apr -0.9 22:54:21 10° W 22:54:42 12° W 22:54:42 12° W visible
